Precipitable_Water
0.22 0.22 0.21 0.21 0.22 0.22 0.22 0.22 0.22 0.22 0.22 0.22 0.22 0.22 0.22 0.21 0.21 0.20 0.19 0.19 0.18 0.18 0.17 0.17 0.17 0.18 0.18 0.17 0.17 0.16 0.16 0.17 0.17 0.17 0.17 0.17 0.17 0.17 0.18 0.18 0.17 0.16 0.17 0.18 0.19 0.19 0.18 0.19 0.18 0.18 0.18 0.17 0.17 0.17 0.17 0.17 0.16 0.15 0.15 0.14 0.14 0.13 0.13
0.22 0.22 0.22 0.22 0.22 0.22 0.22 0.22 0.22 0.22 0.22 0.21 0.21 0.21 0.22 0.21 0.21 0.21 0.20 0.20 0.19 0.19 0.18 0.18 0.18 0.18 0.18 0.18 0.18 0.18 0.18 0.18 0.18 0.18 0.18 0.18 0.18 0.18 0.18 0.19 0.18 0.18 0.18 0.17 0.19 0.19 0.20 0.20 0.20 0.18 0.18 0.17 0.16 0.16 0.16 0.16 0.15 0.15 0.14 0.14 0.14 0.13 0.13
0.22 0.22 0.22 0.22 0.22 0.22 0.22 0.22 0.22 0.22 0.22 0.22 0.22 0.21 0.21 0.21 0.21 0.20 0.20 0.20 0.20 0.20 0.19 0.19 0.19 0.19 0.20 0.20 0.19 0.19 0.19 0.20 0.19 0.19 0.19 0.19 0.19 0.19 0.19 0.19 0.20 0.19 0.18 0.18 0.18 0.19 0.19 0.19 0.19 0.18 0.17 0.17 0.17 0.16 0.16 0.15 0.14 0.14 0.14 0.14 0.13 0.13 0.12
0.23 0.23 0.22 0.22 0.22 0.22 0.22 0.22 0.23 0.23 0.23 0.22 0.22 0.22 0.21 0.21 0.21 0.21 0.21 0.20 0.20 0.20 0.20 0.20 0.20 0.20 0.21 0.21 0.20 0.20 0.20 0.20 0.20 0.20 0.20 0.20 0.20 0.20 0.20 0.20 0.20 0.20 0.19 0.19 0.18 0.18 0.18 0.18 0.18 0.18 0.18 0.17 0.17 0.16 0.15 0.15 0.14 0.14 0.13 0.13 0.13 0.12 0.12
0.24 0.23 0.23 0.22 0.22 0.22 0.22 0.22 0.23 0.22 0.22 0.22 0.22 0.22 0.22 0.22 0.22 0.21 0.21 0.21 0.21 0.21 0.21 0.21 0.21 0.21 0.21 0.21 0.21 0.21 0.21 0.21 0.21 0.21 0.21 0.20 0.20 0.20 0.20 0.20 0.20 0.20 0.19 0.18 0.18 0.18 0.18 0.18 0.18 0.17 0.17 0.17 0.16 0.15 0.15 0.14 0.14 0.13 0.13 0.12 0.12 0.12 0.12
0.24 0.24 0.23 0.23 0.23 0.23 0.23 0.23 0.23 0.23 0.22 0.22 0.22 0.22 0.22 0.22 0.22 0.22 0.22 0.22 0.22 0.22 0.22 0.21 0.21 0.22 0.22 0.21 0.21 0.21 0.21 0.21 0.21 0.21 0.21 0.21 0.21 0.21 0.20 0.20 0.20 0.19 0.19 0.18 0.18 0.17 0.17 0.17 0.17 0.16 0.16 0.16 0.16 0.15 0.14 0.13 0.13 0.13 0.13 0.12 0.12 0.12 0.12
0.23 0.24 0.24 0.24 0.24 0.24 0.24 0.24 0.24 0.23 0.23 0.23 0.22 0.22 0.22 0.22 0.22 0.22 0.22 0.22 0.22 0.22 0.22 0.22 0.22 0.22 0.22 0.22 0.22 0.22 0.22 0.22 0.22 0.22 0.21 0.22 0.21 0.21 0.21 0.20 0.20 0.19 0.19 0.18 0.17 0.17 0.17 0.17 0.17 0.16 0.15 0.16 0.15 0.14 0.13 0.13 0.12 0.12 0.13 0.12 0.12 0.11 0.12
0.24 0.24 0.24 0.24 0.24 0.24 0.24 0.24 0.23 0.23 0.23 0.23 0.22 0.22 0.22 0.22 0.21 0.21 0.22 0.22 0.22 0.22 0.23 0.23 0.23 0.23 0.23 0.23 0.23 0.23 0.23 0.22 0.22 0.22 0.22 0.22 0.22 0.22 0.21 0.20 0.20 0.19 0.19 0.18 0.17 0.17 0.16 0.16 0.16 0.15 0.15 0.15 0.14 0.13 0.13 0.13 0.12 0.11 0.12 0.12 0.12 0.12 0.12
0.25 0.24 0.24 0.25 0.25 0.24 0.24 0.24 0.23 0.23 0.23 0.23 0.22 0.22 0.22 0.22 0.22 0.21 0.21 0.21 0.22 0.22 0.22 0.23 0.23 0.23 0.23 0.23 0.23 0.23 0.23 0.23 0.23 0.22 0.22 0.22 0.22 0.21 0.21 0.20 0.20 0.19 0.18 0.17 0.17 0.16 0.16 0.16 0.15 0.15 0.14 0.14 0.13 0.13 0.12 0.13 0.13 0.12 0.12 0.12 0.11 0.12 0.12
0.25 0.25 0.25 0.25 0.25 0.25 0.24 0.24 0.24 0.24 0.24 0.24 0.23 0.23 0.23 0.22 0.22 0.22 0.22 0.22 0.22 0.22 0.22 0.23 0.23 0.23 0.23 0.23 0.23 0.23 0.23 0.23 0.23 0.23 0.23 0.22 0.22 0.21 0.20 0.20 0.19 0.18 0.18 0.17 0.16 0.16 0.15 0.15 0.14 0.14 0.14 0.14 0.14 0.14 0.13 0.13 0.13 0.12 0.11 0.11 0.11 0.11 0.11
0.25 0.25 0.25 0.25 0.24 0.24 0.24 0.24 0.24 0.24 0.24 0.24 0.24 0.23 0.23 0.23 0.22 0.22 0.22 0.22 0.22 0.22 0.22 0.23 0.23 0.23 0.23 0.23 0.22 0.23 0.23 0.23 0.23 0.23 0.23 0.22 0.22 0.21 0.20 0.19 0.18 0.18 0.17 0.17 0.16 0.16 0.15 0.15 0.14 0.14 0.14 0.14 0.14 0.13 0.13 0.12 0.12 0.11 0.11 0.10 0.09 0.09 0.10
0.24 0.24 0.24 0.24 0.24 0.24 0.24 0.24 0.25 0.25 0.25 0.25 0.25 0.24 0.24 0.24 0.23 0.23 0.23 0.23 0.23 0.23 0.23 0.23 0.24 0.23 0.23 0.22 0.22 0.23 0.23 0.23 0.23 0.22 0.22 0.22 0.21 0.21 0.20 0.20 0.19 0.18 0.17 0.17 0.16 0.15 0.15 0.14 0.14 0.14 0.14 0.13 0.13 0.12 0.12 0.12 0.12 0.12 0.11 0.10 0.09 0.09 0.09
0.23 0.23 0.24 0.24 0.23 0.23 0.24 0.24 0.25 0.25 0.26 0.26 0.26 0.26 0.25 0.24 0.24 0.24 0.24 0.24 0.24 0.24 0.24 0.23 0.23 0.22 0.22 0.22 0.23 0.23 0.23 0.22 0.22 0.22 0.22 0.21 0.21 0.20 0.20 0.20 0.19 0.19 0.18 0.17 0.16 0.15 0.15 0.14 0.14 0.13 0.13 0.13 0.13 0.13 0.12 0.12 0.11 0.11 0.10 0.10 0.09 0.09 0.09
0.22 0.22 0.22 0.22 0.23 0.23 0.23 0.24 0.25 0.25 0.25 0.26 0.27 0.27 0.26 0.25 0.25 0.24 0.24 0.24 0.23 0.23 0.22 0.22 0.21 0.21 0.21 0.22 0.22 0.22 0.22 0.22 0.21 0.21 0.20 0.20 0.20 0.19 0.19 0.19 0.19 0.18 0.18 0.17 0.16 0.15 0.14 0.15 0.14 0.13 0.13 0.13 0.13 0.12 0.11 0.11 0.11 0.11 0.10 0.10 0.10 0.10 0.10
0.20 0.21 0.21 0.22 0.22 0.22 0.22 0.23 0.24 0.24 0.25 0.25 0.26 0.27 0.27 0.25 0.24 0.23 0.22 0.22 0.21 0.21 0.21 0.20 0.20 0.20 0.20 0.20 0.21 0.21 0.21 0.20 0.20 0.19 0.19 0.18 0.18 0.18 0.18 0.18 0.18 0.17 0.17 0.17 0.17 0.16 0.16 0.15 0.15 0.14 0.14 0.13 0.13 0.13 0.12 0.12 0.11 0.11 0.11 0.11 0.11 0.11 0.11
0.20 0.20 0.20 0.20 0.21 0.20 0.20 0.21 0.22 0.23 0.23 0.23 0.24 0.24 0.25 0.23 0.21 0.20 0.20 0.20 0.20 0.20 0.20 0.20 0.19 0.20 0.20 0.20 0.20 0.20 0.20 0.20 0.19 0.18 0.17 0.17 0.17 0.17 0.17 0.17 0.17 0.17 0.17 0.17 0.16 0.16 0.16 0.16 0.15 0.15 0.14 0.14 0.13 0.13 0.13 0.13 0.13 0.12 0.12 0.11 0.10 0.10 0.11
0.20 0.20 0.20 0.20 0.20 0.19 0.19 0.19 0.20 0.20 0.20 0.20 0.21 0.22 0.22 0.21 0.20 0.20 0.19 0.19 0.19 0.19 0.19 0.19 0.20 0.20 0.20 0.19 0.19 0.19 0.19 0.19 0.18 0.17 0.17 0.16 0.16 0.16 0.16 0.15 0.16 0.17 0.17 0.17 0.17 0.17 0.17 0.16 0.16 0.16 0.16 0.16 0.16 0.16 0.15 0.14 0.12 0.12 0.12 0.11 0.10 0.10 0.10
0.19 0.19 0.19 0.19 0.18 0.18 0.17 0.17 0.18 0.18 0.18 0.19 0.20 0.21 0.21 0.21 0.20 0.19 0.19 0.19 0.19 0.19 0.19 0.20 0.20 0.20 0.20 0.19 0.19 0.19 0.19 0.19 0.18 0.17 0.16 0.16 0.15 0.15 0.15 0.15 0.16 0.16 0.16 0.16 0.16 0.17 0.17 0.17 0.17 0.16 0.16 0.16 0.16 0.16 0.16 0.14 0.12 0.12 0.12 0.11 0.10 0.09 0.09
0.18 0.18 0.18 0.18 0.17 0.17 0.17 0.17 0.17 0.18 0.18 0.18 0.19 0.20 0.21 0.21 0.20 0.18 0.18 0.18 0.19 0.19 0.20 0.20 0.20 0.20 0.19 0.19 0.19 0.19 0.19 0.19 0.18 0.17 0.16 0.16 0.15 0.14 0.14 0.15 0.15 0.15 0.15 0.15 0.15 0.14 0.14 0.14 0.15 0.14 0.14 0.14 0.15 0.15 0.15 0.14 0.13 0.13 0.11 0.10 0.10 0.10 0.09
0.17 0.17 0.17 0.17 0.17 0.17 0.17 0.17 0.17 0.18 0.18 0.19 0.19 0.20 0.21 0.21 0.19 0.18 0.18 0.18 0.18 0.18 0.19 0.19 0.19 0.20 0.19 0.19 0.19 0.19 0.19 0.18 0.18 0.17 0.17 0.16 0.15 0.14 0.14 0.15 0.15 0.15 0.15 0.14 0.14 0.14 0.14 0.13 0.13 0.13 0.13 0.12 0.13 0.13 0.13 0.13 0.13 0.13 0.12 0.11 0.10 0.10 0.09
0.17 0.17 0.16 0.17 0.17 0.17 0.17 0.18 0.18 0.18 0.19 0.19 0.20 0.20 0.21 0.20 0.20 0.19 0.18 0.18 0.18 0.18 0.17 0.18 0.18 0.19 0.19 0.19 0.18 0.18 0.18 0.18 0.17 0.17 0.17 0.16 0.15 0.15 0.15 0.15 0.14 0.14 0.14 0.14 0.14 0.13 0.13 0.13 0.13 0.12 0.12 0.12 0.12 0.12 0.12 0.13 0.12 0.12 0.12 0.11 0.10 0.10 0.09
0.16 0.16 0.16 0.17 0.17 0.17 0.17 0.18 0.18 0.18 0.19 0.19 0.20 0.20 0.21 0.20 0.20 0.19 0.18 0.17 0.17 0.17 0.17 0.17 0.17 0.17 0.18 0.18 0.18 0.17 0.17 0.17 0.17 0.17 0.16 0.16 0.16 0.16 0.16 0.15 0.15 0.14 0.14 0.13 0.13 0.13 0.13 0.12 0.12 0.12 0.12 0.12 0.12 0.12 0.11 0.11 0.11 0.11 0.11 0.11 0.10 0.10 0.09
0.15 0.15 0.15 0.16 0.16 0.16 0.17 0.17 0.17 0.18 0.18 0.19 0.19 0.20 0.20 0.20 0.19 0.19 0.18 0.17 0.16 0.16 0.16 0.17 0.17 0.17 0.17 0.17 0.17 0.17 0.16 0.16 0.16 0.16 0.15 0.15 0.15 0.15 0.15 0.15 0.15 0.14 0.14 0.13 0.13 0.12 0.12 0.12 0.12 0.12 0.11 0.11 0.11 0.11 0.11 0.11 0.11 0.11 0.11 0.10 0.10 0.10 0.10
0.15 0.15 0.14 0.14 0.15 0.15 0.16 0.16 0.16 0.17 0.17 0.17 0.18 0.19 0.19 0.19 0.19 0.19 0.18 0.17 0.16 0.16 0.16 0.16 0.16 0.16 0.16 0.16 0.16 0.16 0.16 0.15 0.15 0.15 0.15 0.14 0.14 0.14 0.14 0.14 0.14 0.14 0.13 0.13 0.12 0.12 0.12 0.12 0.12 0.12 0.11 0.11 0.11 0.11 0.11 0.10 0.10 0.10 0.10 0.10 0.09 0.09 0.09
0.14 0.14 0.14 0.14 0.14 0.14 0.15 0.15 0.15 0.16 0.16 0.16 0.17 0.17 0.18 0.18 0.18 0.18 0.17 0.16 0.16 0.16 0.16 0.16 0.16 0.15 0.15 0.15 0.15 0.15 0.15 0.15 0.14 0.14 0.14 0.14 0.14 0.14 0.14 0.13 0.13 0.13 0.13 0.12 0.11 0.11 0.11 0.11 0.12 0.12 0.12 0.12 0.11 0.11 0.10 0.10 0.10 0.10 0.09 0.09 0.09 0.09 0.09
0.13 0.13 0.13 0.13 0.13 0.13 0.14 0.14 0.14 0.14 0.15 0.15 0.16 0.16 0.17 0.17 0.17 0.17 0.16 0.16 0.16 0.15 0.15 0.15 0.15 0.15 0.15 0.14 0.14 0.14 0.14 0.14 0.13 0.13 0.13 0.13 0.13 0.13 0.12 0.12 0.12 0.12 0.12 0.11 0.11 0.11 0.11 0.11 0.11 0.11 0.11 0.11 0.10 0.10 0.09 0.09 0.09 0.09 0.09 0.09 0.08 0.08 0.08
0.12 0.12 0.12 0.12 0.12 0.13 0.13 0.13 0.13 0.14 0.14 0.14 0.14 0.15 0.15 0.16 0.16 0.16 0.16 0.15 0.15 0.15 0.15 0.14 0.14 0.14 0.14 0.14 0.13 0.13 0.13 0.13 0.13 0.13 0.13 0.12 0.12 0.12 0.11 0.11 0.11 0.11 0.11 0.11 0.11 0.11 0.11 0.11 0.11 0.10 0.10 0.10 0.09 0.09 0.09 0.09 0.09 0.08 0.08 0.08 0.08 0.07 0.07
0.11 0.11 0.11 0.11 0.11 0.11 0.12 0.12 0.12 0.12 0.12 0.13 0.13 0.13 0.14 0.14 0.14 0.14 0.14 0.14 0.14 0.14 0.14 0.13 0.13 0.13 0.13 0.13 0.12 0.12 0.12 0.12 0.12 0.12 0.12 0.11 0.11 0.11 0.11 0.11 0.11 0.11 0.11 0.11 0.11 0.11 0.10 0.10 0.10 0.09 0.09 0.09 0.09 0.09 0.09 0.09 0.08 0.08 0.08 0.08 0.07 0.07 0.07
0.10 0.11 0.11 0.12 0.11 0.11 0.10 0.11 0.11 0.12 0.12 0.12 0.12 0.12 0.12 0.13 0.13 0.13 0.13 0.13 0.13 0.13 0.12 0.12 0.12 0.11 0.11 0.11 0.10 0.10 0.10 0.10 0.10 0.10 0.11 0.11 0.10 0.10 0.10 0.10 0.10 0.09 0.09 0.10 0.10 0.10 0.09 0.09 0.09 0.09 0.09 0.08 0.08 0.08 0.08 0.08 0.08 0.08 0.07 0.07 0.07 0.06 0.06
0.10 0.10 0.11 0.11 0.11 0.11 0.10 0.10 0.11 0.12 0.12 0.12 0.12 0.12 0.12 0.12 0.12 0.12 0.12 0.12 0.12 0.12 0.11 0.10 0.10 0.10 0.09 0.09 0.09 0.09 0.09 0.09 0.09 0.09 0.09 0.09 0.10 0.10 0.10 0.09 0.09 0.09 0.09 0.09 0.09 0.09 0.09 0.09 0.08 0.08 0.08 0.08 0.08 0.08 0.08 0.08 0.07 0.07 0.07 0.07 0.06 0.06 0.06
0.10 0.10 0.11 0.11 0.10 0.11 0.11 0.11 0.11 0.11 0.11 0.11 0.11 0.11 0.11 0.11 0.11 0.11 0.11 0.11 0.10 0.10 0.09 0.09 0.09 0.09 0.09 0.09 0.08 0.08 0.08 0.08 0.08 0.08 0.09 0.09 0.09 0.09 0.09 0.09 0.09 0.09 0.09 0.09 0.09 0.09 0.09 0.08 0.08 0.08 0.08 0.08 0.08 0.07 0.07 0.07 0.07 0.07 0.07 0.06 0.06 0.06 0.06
0.09 0.10 0.10 0.10 0.10 0.10 0.10 0.11 0.11 0.11 0.11 0.11 0.11 0.11 0.10 0.10 0.11 0.10 0.10 0.10 0.10 0.09 0.08 0.08 0.08 0.08 0.08 0.08 0.08 0.08 0.08 0.08 0.08 0.08 0.08 0.08 0.08 0.08 0.08 0.08 0.08 0.08 0.08 0.08 0.08 0.08 0.08 0.08 0.08 0.08 0.08 0.07 0.07 0.07 0.07 0.07 0.07 0.07 0.07 0.06 0.06 0.06 0.06
0.09 0.09 0.09 0.09 0.10 0.10 0.10 0.10 0.10 0.10 0.10 0.10 0.10 0.10 0.10 0.10 0.10 0.10 0.10 0.10 0.09 0.08 0.08 0.08 0.08 0.07 0.07 0.07 0.07 0.07 0.07 0.08 0.08 0.08 0.08 0.08 0.08 0.08 0.08 0.08 0.08 0.08 0.08 0.08 0.08 0.08 0.08 0.08 0.08 0.08 0.07 0.07 0.07 0.07 0.07 0.07 0.07 0.07 0.06 0.06 0.06 0.06 0.06
0.08 0.08 0.08 0.09 0.09 0.09 0.10 0.10 0.10 0.10 0.10 0.10 0.10 0.10 0.10 0.10 0.10 0.10 0.10 0.09 0.08 0.08 0.07 0.08 0.07 0.07 0.07 0.07 0.07 0.07 0.07 0.07 0.07 0.08 0.08 0.08 0.08 0.08 0.08 0.08 0.08 0.08 0.08 0.08 0.08 0.08 0.08 0.08 0.08 0.08 0.07 0.07 0.07 0.07 0.07 0.07 0.07 0.07 0.06 0.06 0.06 0.06 0.06
0.07 0.08 0.08 0.08 0.09 0.09 0.09 0.09 0.09 0.09 0.09 0.10 0.10 0.10 0.10 0.10 0.09 0.09 0.09 0.09 0.09 0.08 0.08 0.08 0.07 0.07 0.07 0.07 0.07 0.07 0.07 0.07 0.07 0.07 0.07 0.07 0.08 0.08 0.08 0.08 0.08 0.08 0.08 0.08 0.08 0.08 0.08 0.08 0.08 0.07 0.07 0.07 0.07 0.07 0.07 0.07 0.07 0.06 0.06 0.06 0.06 0.06 0.06
0.07 0.08 0.08 0.08 0.08 0.09 0.08 0.08 0.08 0.08 0.08 0.09 0.09 0.09 0.09 0.08 0.08 0.08 0.08 0.08 0.08 0.08 0.08 0.08 0.08 0.07 0.07 0.07 0.07 0.07 0.07 0.08 0.07 0.08 0.08 0.08 0.08 0.07 0.08 0.08 0.08 0.08 0.08 0.08 0.08 0.08 0.08 0.08 0.07 0.07 0.07 0.07 0.07 0.07 0.07 0.07 0.07 0.06 0.06 0.06 0.06 0.06 0.06
Wind_Speed
43 43 44 44 44 44 45 45 46 46 47 47 48 48 48 48 48 48 48 48 47 47 47 47 47 47 47 47 47 47 47 47 47 47 47 48 48 48 48 48 49 49 50 50 49 50 50 50 50 51 51 51 52 53 53 54 54 54 54 54 54 55 55
44 45 45 45 45 46 46 46 47 47 47 48 48 48 48 49 49 49 49 49 49 49 48 48 48 48 48 48 48 48 48 48 48 48 48 48 49 49 49 49 50 50 51 51 51 51 51 52 52 52 52 52 53 53 53 53 54 54 54 55 55 56 56
45 45 46 46 46 46 47 47 48 48 48 48 49 49 49 49 49 50 50 50 50 50 49 49 49 49 49 49 49 49 49 49 49 49 49 49 49 50 50 50 51 51 52 53 53 52 53 53 53 53 53 53 53 53 53 53 54 55 55 56 56 57 57
45 46 46 46 47 47 47 48 48 49 49 49 50 50 50 50 50 50 51 51 51 50 50 50 50 50 50 49 49 49 49 49 49 50 50 50 50 50 51 51 52 52 53 54 54 54 53 54 54 53 53 53 53 53 53 54 55 55 56 56 57 57 57
45 46 46 47 47 47 48 48 48 49 49 50 50 50 50 51 51 51 51 51 51 51 51 51 51 51 51 50 50 50 50 50 50 50 51 51 51 52 52 53 53 54 54 55 55 55 55 54 54 54 54 54 54 54 54 55 55 56 56 57 57 57 56
46 46 46 47 47 47 48 48 48 49 49 50 50 50 50 51 51 51 51 51 51 51 52 52 52 52 52 52 52 51 51 51 51 52 52 52 53 53 53 54 54 55 55 56 56 56 56 56 55 55 55 55 55 55 55 56 56 56 56 56 56 56 55
46 46 46 47 47 48 48 48 48 49 49 49 50 50 50 50 50 50 51 51 51 51 52 52 53 53 53 53 53 52 52 52 52 53 53 53 54 54 54 55 55 56 56 57 57 57 57 56 56 56 56 56 56 56 56 56 56 55 55 55 54 54 53
46 46 47 47 47 48 48 48 49 49 49 49 50 50 51 51 51 51 51 51 52 52 52 53 53 54 54 54 54 53 53 53 53 53 54 54 54 55 55 56 56 56 57 57 57 57 57 57 57 56 56 56 56 56 55 55 55 55 54 53 53 52 51
46 47 47 47 48 48 48 49 49 49 50 50 51 51 51 52 52 52 52 52 53 53 53 53 54 54 54 54 54 54 54 54 54 54 55 55 55 56 56 56 57 57 57 57 57 57 57 57 57 56 56 56 55 55 55 54 54 53 53 52 52 51 50
46 47 47 47 48 48 48 49 49 50 50 51 51 52 52 53 53 54 54 54 54 54 54 54 55 55 55 54 54 54 54 55 55 55 56 56 56 56 56 57 57 57 57 57 57 57 57 57 57 56 55 55 54 54 53 53 52 52 52 51 51 50 48
46 46 47 47 48 48 48 49 49 50 51 51 52 52 53 54 54 54 55 55 55 55 55 55 55 55 55 55 55 55 55 55 56 56 56 56 57 57 57 57 58 58 58 57 57 57 57 57 57 56 55 54 54 53 52 52 51 51 50 49 48 47 46
46 46 47 47 48 48 49 49 50 51 51 52 53 53 53 54 54 55 55 55 56 56 56 56 56 56 56 55 55 56 56 56 57 57 57 57 57 58 58 58 58 58 58 58 57 57 57 56 56 55 54 53 53 52 51 50 49 48 47 47 46 45 44
46 46 47 48 48 49 49 50 50 51 52 53 53 54 54 54 55 55 56 56 57 57 57 57 57 56 56 56 56 56 57 57 57 57 57 58 58 59 59 59 59 59 59 58 57 57 56 56 55 54 53 52 51 50 49 48 47 46 46 45 45 43 42
46 47 47 48 49 49 50 51 51 52 53 53 54 55 55 55 56 57 57 57 58 58 58 58 57 57 56 56 57 57 57 57 57 57 57 58 58 59 59 59 59 59 58 58 57 56 55 54 53 52 51 50 49 48 47 47 46 45 45 44 43 42 41
47 48 48 49 49 50 51 51 52 53 54 54 55 55 55 56 56 57 57 57 58 58 58 57 57 57 57 57 57 57 57 57 57 57 57 58 58 59 58 58 58 57 57 56 55 54 54 53 52 51 50 49 48 48 47 46 45 45 44 43 43 42 41
48 49 49 50 50 51 51 52 52 54 54 54 55 55 55 55 56 56 56 56 57 57 56 56 56 56 57 57 56 56 56 56 56 56 57 57 58 57 57 57 56 55 54 54 53 53 52 51 51 50 49 48 47 47 46 45 45 44 43 42 42 41 40
50 50 50 51 51 52 52 52 52 53 54 54 54 54 54 55 55 55 55 55 55 55 55 55 56 56 56 55 55 55 55 55 55 55 56 56 56 55 55 54 53 52 52 51 51 51 51 50 50 49 48 48 47 47 46 45 44 43 42 42 41 40 40
51 51 52 52 52 52 52 52 52 52 53 53 53 52 53 53 54 53 53 53 54 54 54 54 55 54 54 53 53 53 53 53 53 53 53 53 53 52 52 50 49 49 49 49 49 49 49 49 49 48 48 47 47 47 46 45 44 43 42 41 41 41 41
52 52 52 52 52 52 52 52 52 52 52 52 52 51 52 52 53 53 52 52 52 52 53 53 52 52 52 52 51 51 51 51 51 51 51 51 50 50 50 48 47 47 48 48 48 48 48 48 48 48 48 48 47 46 45 44 44 43 42 42 42 42 43
52 52 52 52 52 52 52 52 51 51 51 51 51 51 51 52 52 52 51 51 51 51 51 50 50 50 50 50 50 50 50 50 50 50 49 49 49 49 48 48 47 47 47 47 47 47 47 47 47 47 47 47 46 46 45 44 43 43 43 44 44 44 44
53 53 53 52 52 52 52 52 52 52 52 51 51 51 51 51 51 51 50 50 50 50 49 49 48 48 48 48 48 49 49 49 49 48 48 48 48 48 48 47 47 47 47 47 47 46 46 46 45 45 45 44 44 44 44 44 44 44 45 45 45 45 46
53 53 53 53 53 53 52 52 52 52 52 52 51 51 51 51 51 50 50 49 49 49 48 47 47 47 47 47 47 47 47 48 48 48 47 48 48 48 48 47 47 47 47 46 46 45 45 44 44 44 44 44 44 44 44 44 44 45 45 45 45 46 46
54 54 54 54 53 53 52 52 52 51 51 51 51 51 51 50 50 49 49 48 48 47 47 46 46 45 45 45 45 46 46 47 47 47 47 47 47 47 48 47 47 47 47 46 46 46 45 44 44 44 44 44 44 44 43 43 44 44 44 45 45 45 46
53 53 53 53 53 52 52 52 51 51 50 50 50 49 49 49 48 48 47 47 46 45 45 44 44 43 44 44 45 45 46 46 47 47 47 47 47 47 47 47 47 47 47 47 47 46 46 45 45 44 45 44 44 43 43 42 43 43 43 44 45 46 46
53 53 53 52 52 52 52 51 50 49 49 49 48 48 47 47 46 45 45 45 44 44 43 43 43 43 44 45 45 46 46 46 47 47 47 47 47 46 46 46 46 47 47 47 47 46 46 45 45 44 44 43 43 42 42 42 42 43 43 44 45 46 46
53 52 52 52 51 51 50 50 49 48 47 47 46 46 46 45 45 44 44 44 43 43 43 43 44 44 45 46 46 47 47 47 48 48 48 48 47 47 47 47 47 46 47 47 46 46 45 45 44 43 43 42 41 41 42 42 42 42 43 44 44 45 45
52 51 51 51 50 50 49 48 47 46 46 45 45 45 45 45 45 45 45 45 45 45 45 45 46 46 47 47 47 48 48 48 48 48 48 48 47 47 47 47 47 46 46 46 45 45 45 44 43 43 42 41 41 41 41 41 41 42 42 43 43 43 43
50 49 49 49 48 47 47 47 46 45 45 44 44 45 45 45 45 45 46 46 46 46 46 46 47 47 47 48 48 48 48 48 48 48 47 47 47 47 47 47 46 46 46 45 45 44 43 43 42 42 41 40 40 40 40 41 41 41 41 41 41 41 41
49 48 48 48 47 46 46 46 45 45 45 45 45 45 45 45 45 46 46 46 46 46 47 47 47 47 47 47 48 48 47 47 47 47 47 46 46 46 46 46 45 45 44 44 43 42 41 41 40 40 40 39 39 39 40 40 40 40 40 40 40 39 39
48 48 48 48 48 47 46 46 45 45 45 45 45 45 45 45 45 45 45 46 46 46 46 46 46 46 46 46 46 46 46 46 46 46 46 45 45 45 44 44 44 43 42 42 41 41 40 40 39 39 39 38 38 39 39 39 39 38 38 37 37 37 36
47 47 47 47 47 47 47 46 46 45 45 45 45 45 45 45 45 45 45 45 45 45 45 45 45 45 45 45 45 45 45 45 45 45 44 44 44 43 43 43 43 42 41 40 40 40 39 39 39 38 38 37 37 37 37 37 36 35 35 34 34 34 34
46 46 46 46 46 45 45 45 45 45 45 45 44 44 44 44 44 44 44 44 43 44 44 44 44 44 44 44 44 44 44 44 43 43 42 42 41 41 41 41 41 40 40 39 39 39 38 38 37 37 36 36 35 35 34 33 33 32 32 32 32 32 31
44 43 43 43 43 43 42 42 42 42 42 42 42 42 42 42 42 42 42 42 41 41 41 41 42 42 42 42 42 42 41 41 41 40 40 39 39 39 38 38 38 37 37 36 36 36 36 35 35 34 33 33 32 32 31 31 30 30 30 30 30 30 30
42 42 41 41 41 40 40 40 40 40 40 40 40 40 40 40 41 41 41 40 40 40 40 40 40 40 40 40 39 39 39 38 38 37 37 36 36 36 35 35 34 34 33 33 33 33 33 33 32 32 31 31 30 30 30 29 29 29 29 28 28 28 28
40 40 40 39 39 39 40 40 40 40 40 40 40 40 40 40 40 40 40 40 40 39 39 39 39 39 39 38 38 38 37 37 36 36 35 34 34 33 33 32 32 32 32 31 31 31 31 31 31 31 30 30 29 29 28 28 28 28 27 27 27 27 26
40 40 39 39 39 39 40 40 40 40 40 40 40 40 40 40 40 39 39 40 40 39 39 39 39 39 38 38 37 37 36 36 35 35 34 33 33 32 32 31 31 31 31 31 30 30 30 30 30 29 29 28 28 28 28 27 27 26 26 26 25 25 25
Wind_Direction
268 268 268 267 267 267 267 267 266 266 266 265 265 265 265 265 265 265 265 266 266 267 267 268 268 269 269 270 271 271 272 273 274 274 275 276 276 277 278 278 279 280 282 282 282 283 284 284 285 285 286 286 286 286 286 286 287 287 288 288 289 289 289
269 269 269 268 268 267 267 266 266 266 266 266 265 266 266 266 265 265 265 266 266 266 267 267 268 268 269 269 270 271 271 272 273 274 275 275 276 277 277 278 279 280 281 282 282 283 283 284 285 285 286 286 286 286 286 287 287 287 288 288 289 289 289
271 270 269 269 268 268 267 267 266 266 266 265 265 266 266 266 266 266 266 266 266 266 267 267 267 268 268 269 270 270 271 272 273 274 275 275 276 277 277 278 279 279 281 282 282 283 283 284 285 285 286 286 286 286 287 287 287 288 288 289 289 289 289
271 271 270 269 269 268 268 267 267 266 266 266 266 266 266 266 266 266 266 266 266 267 267 267 267 268 268 269 269 270 271 272 273 274 275 275 276 277 278 278 279 280 280 281 282 283 283 284 285 285 285 286 286 286 286 287 288 288 288 288 288 288 288
271 271 270 270 270 269 269 268 268 267 267 266 266 266 266 266 266 266 266 266 267 267 267 267 267 268 268 268 269 270 271 272 273 274 275 275 276 277 278 278 279 280 280 281 282 283 283 284 284 285 285 285 286 286 286 287 288 288 288 288 288 288 288
272 272 271 271 270 270 270 269 268 268 267 267 267 266 266 266 266 266 266 267 267 267 267 267 267 268 268 268 269 270 271 272 273 274 275 276 276 277 278 278 279 280 280 281 282 283 283 284 284 284 284 285 285 286 287 287 287 287 287 288 288 288 288
273 272 272 271 271 271 270 270 269 268 268 267 267 267 267 266 267 267 267 267 267 267 267 268 268 268 268 268 269 270 271 272 273 274 275 276 277 277 278 278 279 280 280 281 282 282 283 283 283 284 284 285 285 286 286 286 287 287 287 287 288 288 288
273 272 272 272 272 271 271 270 270 269 269 268 268 267 267 267 267 267 267 267 268 268 268 268 268 268 268 269 269 270 271 272 273 274 275 276 277 277 278 278 279 280 280 281 281 282 282 283 283 283 284 285 285 285 285 285 286 286 287 287 287 287 287
273 273 273 273 272 272 271 271 271 270 270 269 269 268 268 267 267 267 267 267 268 268 268 268 269 269 269 269 270 271 272 273 273 274 275 276 276 277 277 278 279 279 280 280 280 281 282 282 283 283 283 284 284 284 285 285 285 285 286 286 286 286 286
274 274 274 273 273 273 272 272 272 271 270 270 269 269 269 268 268 268 267 267 268 268 268 268 269 269 269 269 270 271 272 273 273 274 275 276 276 277 277 278 278 279 279 280 280 281 281 282 282 282 282 283 283 284 284 284 284 284 285 286 286 286 286
276 275 274 274 274 273 273 273 272 272 271 270 270 269 269 269 268 268 268 268 268 268 268 268 269 269 269 269 270 271 272 272 273 274 275 275 276 276 277 277 278 278 279 279 280 281 281 281 281 282 282 282 283 283 283 283 283 284 284 285 285 285 285
276 276 275 275 274 274 274 274 273 273 272 271 270 270 270 269 269 268 268 268 268 268 268 269 269 269 269 270 270 271 272 272 273 274 274 274 275 275 276 277 277 278 278 279 279 280 280 280 280 281 281 281 282 282 282 282 282 282 283 283 283 284 284
277 277 276 276 276 275 275 274 274 274 273 272 271 270 270 270 270 269 269 269 269 269 269 269 269 269 270 270 270 271 272 272 273 273 274 274 275 275 276 276 277 277 278 278 278 278 279 279 279 280 280 280 281 281 281 281 281 281 281 282 282 283 282
278 278 277 277 277 276 276 276 275 275 274 273 272 271 270 270 270 270 270 269 269 269 269 269 269 269 270 270 270 271 271 272 273 273 273 274 275 275 276 276 277 277 277 277 277 277 277 278 278 279 279 279 279 279 279 279 280 280 281 281 282 282 281
278 278 278 278 278 278 278 277 277 276 275 274 273 272 271 271 271 271 271 270 270 270 269 269 269 270 270 270 270 271 271 271 272 273 273 274 275 275 276 276 277 277 277 276 276 276 276 276 277 277 278 278 278 278 278 279 279 280 281 281 281 280 279
278 278 278 279 279 279 279 278 278 277 276 275 274 273 272 272 272 272 271 271 270 270 270 269 270 270 270 270 270 270 270 271 272 272 272 273 274 275 276 277 276 276 276 276 275 275 276 276 276 276 277 277 277 277 277 278 278 279 279 279 279 278 278
279 279 279 279 279 279 279 279 279 278 277 276 275 274 273 273 272 272 271 271 270 270 269 269 269 269 270 270 270 270 270 270 271 272 272 273 274 275 276 276 276 276 275 275 275 274 274 275 275 275 276 276 276 276 276 277 277 277 277 276 277 277 277
279 279 279 279 279 279 279 279 279 279 278 277 275 274 273 273 272 272 271 271 270 270 269 269 269 269 270 270 270 270 269 270 270 271 272 273 274 274 275 276 276 275 275 275 275 274 274 274 274 275 275 276 276 276 275 275 275 275 275 275 275 276 277
280 279 279 279 279 279 279 279 279 279 278 277 276 274 274 273 272 272 271 271 271 270 270 270 270 269 269 270 270 269 269 269 270 271 272 273 273 273 273 274 275 274 275 275 275 275 275 275 275 275 275 275 275 275 274 274 274 275 274 275 275 277 278
280 280 280 280 279 280 280 279 279 279 278 277 276 275 274 273 272 271 271 271 271 270 271 271 270 270 269 269 269 268 268 269 270 271 272 273 273 273 273 274 274 273 274 274 275 275 276 276 276 276 275 275 274 273 273 273 274 274 274 275 276 276 277
280 280 280 280 279 279 279 279 279 279 278 277 276 275 274 274 273 272 271 271 271 271 271 270 270 270 269 268 268 268 268 269 270 271 272 273 273 273 273 273 273 273 273 274 275 275 275 275 276 275 275 274 274 273 273 273 273 273 274 275 276 276 277
280 280 280 280 279 279 279 279 279 278 278 277 276 275 274 274 274 273 272 271 271 270 270 270 270 269 268 267 267 268 268 269 270 271 273 273 273 273 273 273 273 273 273 273 274 274 274 274 274 274 274 274 274 274 273 273 273 273 274 274 275 276 278
280 280 280 280 280 279 279 279 279 278 277 277 276 275 274 274 273 272 272 272 271 270 270 269 269 268 267 267 267 268 268 270 271 272 273 273 273 273 273 273 273 273 273 272 273 273 273 273 273 273 273 273 274 274 274 274 273 273 274 275 276 277 278
280 280 280 280 280 280 279 279 278 278 277 277 276 275 274 273 272 271 271 271 271 270 270 269 269 268 267 268 268 269 270 270 271 272 272 273 273 273 274 273 273 273 273 272 272 272 272 272 272 272 273 273 273 273 273 273 274 274 274 275 277 278 279
280 280 280 279 279 279 279 279 278 278 277 277 276 274 273 272 271 271 271 271 270 270 269 269 268 268 268 269 270 271 271 271 271 271 272 272 272 273 273 273 273 273 273 272 272 272 272 271 271 272 272 272 272 272 272 273 274 274 275 276 278 279 280
280 280 280 279 279 279 279 278 277 277 277 276 275 274 272 271 270 269 269 269 269 269 268 268 268 269 270 270 271 272 272 272 272 272 271 271 272 272 273 273 273 272 272 272 272 272 272 272 272 272 272 272 271 271 272 273 273 274 276 277 278 280 281
280 280 279 279 279 278 278 278 277 276 276 276 275 274 272 270 269 269 269 269 269 269 269 269 270 270 271 271 272 272 272 273 272 271 271 271 271 271 272 273 272 272 271 271 271 271 272 271 271 271 271 271 271 271 272 273 274 275 276 278 279 280 280
281 281 280 279 279 278 278 277 276 275 275 275 275 274 272 271 269 269 269 269 269 270 270 270 271 271 272 272 272 272 272 272 272 271 271 271 271 271 271 272 272 272 271 271 271 271 271 270 270 270 270 270 271 271 272 273 274 275 277 278 279 279 280
281 280 280 280 279 278 277 276 276 275 274 274 274 273 272 271 270 269 269 269 269 269 270 271 271 271 272 272 271 271 271 271 271 271 271 270 270 271 271 271 271 271 271 270 269 269 269 269 269 269 269 270 270 271 272 273 275 276 277 278 278 278 279
280 280 279 279 278 278 277 276 276 276 274 273 273 273 272 272 270 270 269 269 269 269 270 270 271 271 271 271 271 271 271 271 271 271 271 271 270 270 270 270 271 271 270 269 268 268 268 268 268 268 269 269 270 271 273 274 275 276 276 277 277 277 278
281 280 280 279 278 278 277 276 276 276 275 274 273 272 272 272 271 270 269 269 269 270 270 270 270 271 271 271 271 271 271 271 271 271 271 270 270 270 270 270 270 270 269 268 267 267 267 267 267 268 268 269 270 271 272 273 274 274 275 275 276 276 277
282 281 280 280 279 278 277 277 276 276 275 275 274 273 272 272 271 270 270 269 269 270 270 270 270 270 271 271 271 271 271 270 270 270 270 270 270 270 269 269 269 269 268 266 265 265 266 266 266 267 268 268 269 270 271 271 272 272 273 274 275 276 277
282 281 281 281 280 279 278 278 277 276 276 275 274 274 273 272 271 271 270 269 270 270 270 270 270 270 271 271 271 270 270 270 270 270 269 269 269 269 269 269 269 268 267 265 264 264 264 265 265 266 266 267 268 268 269 269 270 271 273 274 275 275 276
282 282 281 281 280 279 279 279 278 277 277 276 275 274 273 272 272 271 270 270 269 270 270 270 270 270 270 270 270 270 269 269 269 269 269 269 268 268 268 268 268 267 266 264 263 263 263 264 264 264 265 265 266 266 267 268 269 271 272 273 274 274 275
282 282 281 280 279 279 279 279 279 278 277 276 275 274 273 272 272 271 271 270 270 269 269 269 270 270 270 270 270 269 269 268 268 268 268 268 267 267 266 266 266 265 265 264 263 262 262 263 263 263 264 264 264 264 265 267 269 270 271 272 273 274 274
281 281 280 280 279 278 278 279 279 278 278 277 276 275 274 272 271 270 270 270 270 270 269 269 269 269 269 269 269 268 268 267 267 266 267 266 266 266 265 265 264 264 263 263 262 262 262 262 261 262 262 262 262 263 265 266 267 269 270 271 272 273 273